Granada, Spain

10:14 AM CEST on July 21, 2017 (GMT +0200)
Granada

Weather History for LEGR - May, 2014

Change the Weather History Date:

Friday, May 9, 2014

  Actual Average Record
Temperature  
Mean Temperature 72 °F -  
Max Temperature 91 °F 79 °F 91 °F (2014)
Min Temperature 52 °F 51 °F 37 °F (1997)
Cooling Degree Days 6    
Growing Degree Days 22 (Base 50)    
Moisture  
Dew Point 52 °F    
Average Humidity 46    
Maximum Humidity 88    
Minimum Humidity 9    
Precipitation  
Precipitation 0.00 in - - ()
Sea Level Pressure  
Sea Level Pressure 30.07 in    
Wind  
Wind Speed 3 mph ()    
Max Wind Speed 15 mph    
Max Gust Speed -    
Visibility 11.1 miles    
Events      
Averages and records for this station are not official NWS values.
T = Trace of Precipitation, MM = Missing Value Source: Averaged Metar Reports

Daily Weather History Graph

Daily Weather History Graph

Search for Another Location

Airport or City:

Trip Planner

Search our weather history database for the weather conditions in past years. The results will help you decide how hot, cold, wet, or windy it might be!

Date:

Astronomy

May. 09, 2014 Rise Set
Actual Time 7:12 AM CEST 9:11 PM CEST
Civil Twilight 6:43 AM CEST 9:40 PM CEST
Nautical Twilight 6:08 AM CEST 10:14 PM CEST
Astronomical Twilight 5:31 AM CEST 10:52 PM CEST
Moon 4:02 PM CEST (5/9) 3:59 AM CEST (5/9)
Length of Visible Light 14h 56m
Length of Day
13h 59m
Waxing Gibbous, 71% of the Moon is Illuminated
May 9
Waxing Gibbous
May 14
Full
May 21
Last Quarter
May 28
New
Jun 5
First Quarter

Hourly Weather History & Observations

Time (CEST) Temp. Heat Index Dew Point Humidity Pressure Visibility Wind Dir Wind Speed Gust Speed Precip Events Conditions
12:00 AM 66 °F - 49 °F 44% 30.06 in 19 mi SSW 2.3 mph - -  
1:00 AM 63 °F - 51 °F 55% 30.07 in 19 mi Calm Calm - -  
2:00 AM 62 °F - 50 °F 54% 30.08 in 19 mi Calm Calm - -  
3:00 AM 59 °F - 51 °F 66% 30.09 in 18 mi WSW 1.2 mph - -  
4:00 AM 58 °F - 50 °F 66% 30.09 in 19 mi SSW 2.3 mph - -  
5:00 AM 56 °F - 50 °F 73% 30.10 in 14 mi Calm Calm - -  
6:00 AM 55 °F - 49 °F 76% 30.09 in 11 mi Calm Calm - -  
6:30 AM 53.6 °F - 50.0 °F 88% 30.09 in - Variable 1.2 mph - N/A   Clear
7:00 AM 53 °F - 49 °F 83% 30.10 in 12 mi WSW 2.3 mph - -  
7:30 AM 53.6 °F - 50.0 °F 88% 30.09 in - Variable 1.2 mph - N/A   Clear
8:00 AM 58 °F - 50 °F 66% 30.10 in 9 mi Calm Calm - -   Scattered Clouds
8:00 AM 55.4 °F - 50.0 °F 82% 30.12 in - Calm Calm - N/A   Clear
8:30 AM 59.0 °F - 51.8 °F 77% 30.12 in - Calm Calm - N/A   Clear
9:00 AM 65 °F - 52 °F 54% 30.09 in 11 mi Calm Calm - -   Scattered Clouds
9:00 AM 62.6 °F - 51.8 °F 68% 30.12 in - Calm Calm - N/A   Clear
9:30 AM 66.2 °F - 53.6 °F 64% 30.12 in - Calm Calm - N/A   Clear
10:00 AM 72 °F - 53 °F 41% 30.06 in 14 mi Calm Calm - -  
10:00 AM 71.6 °F - 53.6 °F 53% 30.12 in - Calm Calm - N/A   Clear
10:30 AM 71.6 °F - 55.4 °F 57% 30.12 in - Calm Calm - N/A   Clear
11:00 AM 75 °F - 53 °F 36% 30.05 in 16 mi NNE 1.2 mph - -   Scattered Clouds
11:00 AM 73.4 °F - 55.4 °F 53% 30.12 in 6.2 mi Variable 1.2 mph - N/A   Partly Cloudy
11:30 AM 75.2 °F - 53.6 °F 47% 30.12 in 6.2 mi Calm Calm - N/A   Partly Cloudy
12:00 PM 80 °F - 52 °F 27% 30.02 in 16 mi North 2.3 mph - -  
12:00 PM 77.0 °F - 55.4 °F 47% 30.12 in 6.2 mi Variable 1.2 mph - N/A   Partly Cloudy
12:30 PM 80.6 °F 80.3 °F 53.6 °F 39% 30.12 in 6.2 mi Variable 1.2 mph - N/A   Partly Cloudy
1:00 PM 84 °F - 53 °F 24% 30.00 in 19 mi East 2.3 mph - -  
1:00 PM 80.6 °F 80.5 °F 55.4 °F 42% 30.12 in 6.2 mi Variable 1.2 mph - N/A   Partly Cloudy
1:30 PM 82.4 °F 81.4 °F 53.6 °F 37% 30.12 in 6.2 mi Variable 1.2 mph - N/A   Partly Cloudy
2:00 PM 87 °F - 52 °F 20% 29.97 in 16 mi WNW 2.3 mph - -   Scattered Clouds
2:00 PM 84.2 °F - 51.8 °F 33% 30.09 in 6.2 mi Variable 2.3 mph - N/A   Partly Cloudy
2:30 PM 86.0 °F - 50.0 °F 29% 30.09 in 6.2 mi Variable 1.2 mph - N/A   Partly Cloudy
3:00 PM 90 °F - 48 °F 14% 29.95 in 19 mi WNW 3.5 mph - -   Scattered Clouds
3:00 PM 87.8 °F - 48.2 °F 25% 30.09 in 6.2 mi Variable 1.2 mph - N/A   Partly Cloudy
3:30 PM 87.8 °F - 50.0 °F 27% 30.06 in 6.2 mi Variable 3.5 mph - N/A   Partly Cloudy
4:00 PM 92 °F - 41 °F 9% 29.93 in 19 mi South 5.8 mph - -  
4:00 PM 87.8 °F - 46.4 °F 24% 30.06 in 6.2 mi South 5.8 mph - N/A   Partly Cloudy
4:30 PM 89.6 °F - 44.6 °F 21% 30.06 in 6.2 mi South 10.4 mph - N/A   Partly Cloudy
5:00 PM 90 °F - 41 °F 10% 29.93 in 16 mi SSE 11.5 mph - -   Scattered Clouds
5:00 PM 87.8 °F - 44.6 °F 22% 30.06 in 6.2 mi SSE 11.5 mph - N/A   Partly Cloudy
5:30 PM 86.0 °F - 46.4 °F 25% 30.06 in 6.2 mi Variable 9.2 mph - N/A   Partly Cloudy
6:00 PM 90 °F - 53 °F 19% 29.93 in 14 mi South 12.7 mph - -  
6:00 PM 87.8 °F - 50.0 °F 27% 30.06 in 6.2 mi SSE 12.7 mph - N/A   Scattered Clouds
6:30 PM 86.0 °F 84.5 °F 55.4 °F 35% 30.06 in 6.2 mi WSW 15.0 mph - N/A   Scattered Clouds
7:00 PM 84 °F - 54 °F 26% 29.96 in 18 mi West 15.0 mph - -  
7:00 PM 84.2 °F 83.0 °F 55.4 °F 37% 30.06 in 6.2 mi West 13.8 mph - N/A   Scattered Clouds
7:30 PM 80.6 °F 80.5 °F 55.4 °F 42% 30.09 in 6.2 mi West 12.7 mph - N/A   Scattered Clouds
8:00 PM 78 °F - 54 °F 33% 30.01 in 12 mi WSW 9.2 mph - -   Scattered Clouds
8:00 PM 78.8 °F - 55.4 °F 44% 30.09 in 6.2 mi WSW 9.2 mph - N/A   Scattered Clouds
8:30 PM 75.2 °F - 57.2 °F 53% 30.12 in 6.2 mi NW 9.2 mph - N/A   Scattered Clouds
9:00 PM 73 °F - 56 °F 46% 30.05 in 19 mi WNW 8.1 mph - -  
9:00 PM 73.4 °F - 57.2 °F 57% 30.12 in 6.2 mi NW 6.9 mph - N/A   Scattered Clouds
9:30 PM 73.4 °F - 57.2 °F 57% 30.12 in 6.2 mi Variable 2.3 mph - N/A   Scattered Clouds
10:00 PM 72 °F - 53 °F 40% 30.06 in 19 mi SSE 3.5 mph - -   Clear
10:00 PM 73.4 °F - 55.4 °F 53% 30.12 in 6.2 mi South 4.6 mph - N/A   Mostly Cloudy
10:30 PM 71.6 °F - 55.4 °F 57% 30.12 in 6.2 mi Calm Calm - N/A   Mostly Cloudy
11:00 PM 71 °F - 57 °F 51% 30.08 in 19 mi Calm Calm - -   Scattered Clouds
11:00 PM 71.6 °F - 57.2 °F 60% 30.15 in 6.2 mi Calm Calm - N/A   Mostly Cloudy